Wind_Speed
58 63 62 55 54 51 52 52 51 50 50 46 39 35 32 36 33 30 34 33 31 30 31 27 25 23 20 19 19 21 20 22 22 24 24 24 24 22 21 21 21 22 25 27
60 62 62 54 56 54 55 54 54 53 50 50 45 39 33 34 36 31 33 33 33 31 31 29 26 26 21 21 20 19 21 21 21 22 26 25 25 24 24 23 24 27 29 31
55 56 57 59 58 56 55 58 55 55 53 51 49 48 38 35 32 35 27 30 31 35 31 27 32 30 28 23 22 22 22 21 21 21 22 23 22 24 24 26 28 29 29 32
48 52 61 59 60 60 58 54 55 57 54 55 55 55 43 37 35 33 26 24 23 29 31 31 30 33 29 26 28 25 24 21 21 22 21 21 23 23 25 26 28 29 30 32
50 50 55 60 57 58 61 54 55 55 54 57 57 59 49 40 38 32 28 23 30 26 30 29 30 29 33 33 31 30 28 26 22 22 22 21 21 24 26 26 27 29 29 30
55 46 51 54 52 54 56 55 56 57 57 62 61 59 61 46 41 35 30 30 32 27 22 25 29 30 33 36 36 33 31 28 28 25 26 25 25 27 28 29 29 30 32 33
57 57 47 47 55 58 59 56 54 55 60 66 62 62 63 50 40 36 36 33 31 30 27 23 23 26 32 31 34 34 35 34 32 32 31 30 30 32 32 32 34 34 34 35
50 62 53 41 48 60 62 63 66 64 65 68 66 67 64 54 40 36 34 35 33 32 33 28 25 24 22 28 35 37 38 36 36 34 34 36 35 35 36 36 36 38 38 39
40 51 58 58 52 50 60 65 57 62 62 65 66 66 62 56 40 42 35 35 35 33 30 27 29 26 24 18 23 29 33 35 36 37 39 40 40 40 40 41 42 41 42 42
62 47 51 63 58 59 60 56 63 59 62 64 68 67 64 60 43 38 38 38 37 35 32 29 29 28 24 20 18 18 19 22 24 25 26 30 39 43 46 47 47 47 47 47
61 60 61 42 49 60 61 68 66 61 60 63 63 65 62 58 49 39 38 36 36 36 34 32 30 28 27 28 27 27 27 26 26 27 28 30 32 37 42 46 50 51 51 51
57 63 65 52 53 52 48 49 61 66 66 63 62 63 59 58 55 40 38 39 39 37 35 35 35 33 31 30 30 31 31 31 33 34 35 36 37 39 41 45 48 51 54 54
43 48 67 59 60 57 54 61 55 52 60 62 61 60 59 57 51 42 36 38 39 39 40 40 38 36 36 35 34 35 35 35 36 38 38 39 40 40 40 43 50 51 55 56
52 62 65 54 61 56 58 56 61 60 57 60 60 54 57 55 52 45 37 40 41 43 42 41 40 38 39 39 40 40 41 40 39 40 40 42 44 46 46 46 46 50 54 56
55 71 61 57 48 69 56 48 55 61 55 60 53 56 53 50 48 46 46 42 43 47 47 46 43 42 43 44 44 44 45 47 47 48 48 50 50 50 49 51 53 55 56 57
56 58 65 52 43 55 50 49 47 44 44 51 56 59 54 50 53 52 49 46 42 46 47 47 48 48 50 51 51 50 50 51 51 52 54 54 55 55 56 55 53 55 58 59
58 53 53 51 51 54 58 56 49 49 45 46 49 53 53 46 52 51 49 47 42 44 47 50 51 51 54 57 56 55 53 53 52 52 53 55 57 58 59 58 59 59 60 62
55 60 62 54 48 64 50 47 42 46 48 45 43 43 51 53 50 49 48 49 50 48 47 44 46 48 50 51 52 52 51 52 53 54 55 55 55 55 55 56 56 57 58 60
54 54 56 55 58 56 49 42 46 45 47 45 46 48 44 42 48 54 49 52 49 43 43 43 44 43 42 45 48 51 52 53 54 56 56 55 55 56 56 58 58 60 60 60
48 49 55 63 57 51 38 36 34 49 49 45 41 41 48 49 47 43 45 42 40 41 38 37 36 36 37 39 42 46 50 50 50 49 50 51 52 53 54 56 56 57 58 59
52 55 57 51 49 45 44 41 44 50 25 29 36 34 34 39 41 39 42 40 40 37 36 35 36 36 36 37 39 40 42 44 46 47 48 50 52 54 55 56 57 56 57 57
48 46 61 52 46 46 44 41 39 32 31 32 24 34 34 31 31 30 33 36 36 37 36 36 36 39 40 41 42 41 41 42 42 43 44 46 47 49 51 51 51 51 53 55
38 37 47 48 43 41 41 40 38 40 39 36 31 29 33 32 34 35 34 34 32 33 35 38 39 40 39 38 37 37 37 38 38 37 37 38 39 40 41 42 43 45 46 47
32 38 39 39 36 41 41 39 44 35 35 33 34 35 34 33 34 34 32 30 30 32 34 35 34 34 35 35 35 35 35 34 35 34 34 34 35 36 37 38 40 41 42 44
37 35 35 36 34 35 40 41 36 33 35 35 35 33 35 34 31 31 31 30 29 27 27 26 25 25 26 27 28 30 31 32 33 33 33 32 32 34 37 39 39 40 41 41
42 39 37 40 38 36 40 35 35 38 43 45 40 35 35 34 34 35 35 34 32 28 25 24 25 26 27 27 28 29 30 31 32 33 34 36 37 38 38 39 40 40 41 40
Wind_Direction
223 231 233 236 237 235 238 238 238 235 240 246 245 240 239 256 232 235 238 242 240 234 242 241 245 244 244 248 245 250 255 253 250 249 242 238 236 240 243 246 253 257 249 246
228 232 234 232 233 232 236 240 239 243 243 246 244 241 241 247 260 248 244 247 247 244 237 250 248 249 243 243 250 250 251 252 246 247 250 251 253 250 247 247 245 246 249 252
230 228 230 232 233 236 236 240 242 243 246 246 245 240 236 239 244 258 251 251 251 254 247 242 246 245 242 241 244 247 248 253 254 249 254 255 256 256 253 250 253 254 256 256
231 227 226 229 231 235 237 238 242 244 245 247 246 244 236 238 242 249 254 257 259 253 247 241 247 243 241 241 242 245 250 250 252 255 253 254 256 257 256 256 256 259 260 261
236 230 230 227 233 234 236 233 240 244 245 247 247 248 232 236 242 247 249 243 252 256 252 246 247 250 233 235 240 240 243 247 249 255 259 259 260 260 259 260 261 262 262 262
233 235 229 227 228 232 232 230 234 239 243 245 245 245 240 234 241 244 249 243 259 259 259 257 252 249 247 238 237 240 244 245 247 248 254 256 256 257 259 260 259 261 264 265
230 233 236 230 229 230 229 229 228 232 237 244 245 245 241 235 239 244 245 247 245 253 257 257 264 259 252 250 248 245 245 245 245 248 251 254 255 256 258 261 265 267 269 273
233 232 226 220 228 230 234 232 230 233 240 245 246 244 245 245 240 243 245 246 249 249 253 258 257 276 263 255 248 245 247 251 255 252 255 258 259 261 263 264 267 269 271 272
219 230 223 231 236 232 231 230 233 234 237 242 248 247 250 251 244 245 244 245 250 251 252 251 250 255 260 265 253 250 253 255 261 266 265 265 264 267 266 267 268 269 270 272
222 229 228 230 242 234 233 234 234 232 233 238 245 248 249 251 246 240 243 243 246 249 251 250 247 247 250 251 262 260 256 256 259 261 266 265 266 267 269 268 268 268 269 270
220 223 222 230 240 235 231 227 229 231 236 239 244 248 250 251 251 240 239 243 247 250 250 249 248 251 250 248 249 254 257 259 259 263 264 265 269 268 268 270 271 270 270 271
219 230 226 232 240 235 237 237 238 235 232 230 236 240 245 247 252 243 241 243 247 249 247 248 251 251 250 251 252 254 259 262 264 266 267 267 263 262 266 266 269 272 273 274
214 232 230 230 239 239 235 237 237 239 235 236 237 240 244 249 254 252 245 246 247 250 250 249 247 250 254 253 255 257 260 262 264 266 270 270 271 269 266 266 265 265 268 271
229 228 225 235 234 236 241 243 242 240 239 232 231 233 242 245 247 253 246 241 241 241 244 247 250 251 251 254 259 262 262 263 264 263 263 264 266 267 267 266 263 263 268 272
230 225 221 223 234 236 242 247 246 243 245 242 229 234 234 244 248 247 247 243 240 239 243 244 247 252 257 259 260 261 265 267 267 266 264 265 269 271 272 273 268 264 265 269
234 234 234 236 235 237 229 228 240 242 240 244 238 240 238 242 243 243 247 250 244 243 243 243 247 252 256 256 260 262 265 267 269 270 272 272 273 275 276 278 276 275 277 278
237 232 235 227 227 231 232 232 244 248 246 248 245 235 233 240 243 245 246 248 252 253 251 251 252 254 254 254 256 259 264 267 269 271 273 274 276 277 278 278 277 277 278 278
210 228 231 244 225 239 236 238 244 249 250 252 250 241 240 244 246 248 250 253 255 261 262 263 262 260 259 260 262 265 269 271 270 270 272 273 274 275 276 276 277 278 278 278
213 219 229 234 234 236 237 242 247 251 251 255 256 246 239 242 245 247 254 253 258 261 260 261 262 263 265 266 266 266 268 270 273 274 275 278 278 279 279 280 280 281 281 282
213 220 231 236 233 236 231 251 246 246 250 249 248 239 241 244 244 243 248 252 255 256 258 259 260 262 265 267 269 271 272 274 276 276 276 277 277 277 278 279 278 278 279 280
219 230 230 224 225 238 238 243 249 244 258 237 240 239 238 238 242 240 245 250 253 256 257 260 262 264 266 268 269 269 271 271 271 270 270 270 271 272 273 273 273 274 276 277
218 223 225 220 232 244 241 248 250 246 245 246 240 231 223 229 231 235 237 243 250 256 262 266 270 273 275 275 276 277 277 277 278 280 281 281 281 281 278 276 275 279 282 284
224 235 232 230 228 231 233 229 237 237 245 234 218 222 223 225 230 235 241 246 253 262 266 269 271 272 274 278 279 281 281 282 283 283 281 279 280 283 284 284 284 284 286 289
226 225 214 212 215 222 231 233 250 250 239 220 212 214 219 225 231 235 240 247 253 259 262 265 270 274 274 275 277 278 280 280 281 282 281 282 282 282 283 284 285 286 288 289
230 230 219 217 219 225 232 236 236 224 218 214 214 215 220 223 228 237 237 240 245 258 263 263 267 271 273 274 277 281 284 285 286 287 288 288 289 291 293 294 294 295 296 296
225 229 227 223 227 228 225 228 219 211 215 215 216 216 220 226 232 232 235 243 251 260 267 272 272 273 275 280 284 285 285 287 288 287 288 290 292 293 296 296 294 293 295 296
Height
5729 5739 5750 5765 5770 5777 5783 5786 5792 5799 5802 5805 5811 5817 5821 5822 5825 5828 5832 5836 5839 5845 5845 5848 5852 5855 5857 5859 5861 5862 5863 5864 5867 5870 5869 5869 5870 5872 5873 5874 5876 5876 5876 5875
5720 5730 5747 5752 5757 5766 5773 5779 5786 5791 5796 5798 5803 5811 5816 5816 5820 5824 5829 5830 5834 5838 5842 5844 5849 5850 5852 5854 5855 5857 5858 5860 5861 5864 5864 5866 5866 5867 5867 5869 5869 5868 5869 5871
5713 5734 5734 5739 5748 5756 5765 5771 5778 5784 5788 5790 5793 5799 5807 5811 5814 5817 5823 5826 5828 5832 5835 5839 5841 5844 5846 5850 5850 5851 5852 5855 5857 5857 5859 5861 5862 5862 5863 5863 5863 5864 5865 5864
5706 5715 5719 5727 5738 5747 5756 5766 5769 5772 5780 5783 5785 5786 5800 5805 5808 5812 5817 5820 5822 5824 5825 5830 5833 5836 5840 5844 5844 5846 5847 5848 5851 5852 5853 5855 5857 5858 5857 5857 5857 5858 5859 5859
5699 5703 5711 5719 5736 5739 5747 5755 5760 5764 5771 5774 5779 5778 5792 5799 5801 5807 5811 5813 5814 5816 5819 5823 5828 5830 5831 5832 5837 5838 5841 5841 5844 5847 5848 5849 5851 5851 5850 5850 5851 5851 5852 5853
5691 5698 5702 5716 5723 5727 5733 5743 5749 5752 5759 5760 5770 5773 5773 5791 5796 5802 5803 5806 5807 5811 5813 5817 5819 5823 5824 5824 5826 5831 5835 5836 5837 5839 5841 5843 5843 5844 5844 5844 5844 5844 5844 5844
5685 5688 5696 5706 5711 5715 5722 5734 5737 5740 5742 5751 5761 5762 5767 5782 5793 5794 5796 5799 5801 5804 5808 5811 5813 5816 5818 5818 5821 5824 5826 5829 5829 5830 5833 5835 5836 5835 5836 5837 5837 5838 5838 5839
5673 5677 5687 5693 5698 5710 5718 5722 5726 5729 5738 5748 5746 5754 5760 5773 5786 5788 5790 5792 5795 5799 5801 5804 5806 5808 5811 5810 5812 5814 5817 5820 5822 5822 5825 5825 5827 5829 5829 5829 5829 5829 5829 5829
5663 5667 5681 5687 5695 5703 5705 5704 5726 5722 5729 5732 5737 5751 5754 5761 5778 5780 5784 5786 5789 5790 5793 5796 5798 5800 5802 5804 5805 5807 5810 5812 5814 5816 5816 5818 5818 5819 5821 5820 5820 5820 5819 5819
5657 5664 5672 5680 5682 5686 5692 5713 5708 5709 5717 5722 5729 5738 5745 5752 5767 5772 5775 5778 5781 5783 5784 5787 5789 5791 5794 5797 5799 5801 5803 5805 5806 5808 5808 5809 5810 5810 5810 5810 5811 5810 5809 5809
5650 5655 5661 5667 5665 5673 5685 5685 5694 5706 5710 5717 5724 5729 5739 5743 5752 5766 5767 5769 5772 5773 5775 5778 5780 5782 5785 5787 5790 5793 5795 5796 5798 5798 5798 5799 5800 5799 5798 5797 5798 5798 5797 5798
5642 5645 5649 5657 5661 5671 5675 5681 5692 5691 5700 5708 5712 5721 5726 5734 5739 5755 5760 5761 5763 5765 5767 5769 5771 5774 5775 5778 5781 5783 5784 5786 5788 5788 5789 5788 5788 5788 5787 5787 5786 5785 5784 5784
5632 5636 5643 5649 5652 5656 5663 5674 5681 5686 5693 5694 5706 5716 5720 5726 5732 5740 5750 5753 5755 5756 5758 5760 5762 5765 5767 5768 5770 5773 5774 5776 5776 5777 5778 5778 5777 5776 5776 5775 5773 5772 5771 5770
5620 5625 5630 5638 5651 5657 5662 5668 5674 5678 5680 5690 5692 5708 5711 5716 5721 5727 5738 5741 5744 5746 5749 5751 5754 5756 5758 5760 5761 5762 5763 5764 5764 5765 5765 5766 5765 5764 5763 5762 5760 5759 5758 5756
5606 5606 5622 5632 5638 5642 5651 5658 5662 5664 5679 5676 5694 5694 5704 5709 5713 5715 5719 5728 5734 5737 5739 5743 5745 5748 5749 5751 5751 5752 5752 5752 5753 5753 5753 5753 5753 5752 5752 5751 5749 5746 5745 5743
5597 5603 5615 5621 5626 5631 5637 5645 5650 5657 5666 5666 5678 5681 5693 5697 5698 5703 5710 5714 5720 5724 5731 5734 5736 5738 5739 5740 5740 5740 5739 5739 5739 5739 5739 5739 5739 5738 5737 5737 5735 5734 5732 5729
5592 5599 5605 5611 5619 5625 5624 5635 5644 5653 5658 5666 5665 5682 5684 5687 5687 5693 5699 5704 5706 5712 5717 5721 5725 5727 5728 5728 5728 5728 5728 5728 5728 5727 5727 5726 5726 5725 5724 5722 5720 5719 5717 5715
5576 5588 5597 5602 5609 5609 5618 5629 5638 5642 5649 5654 5658 5667 5672 5678 5681 5682 5687 5691 5697 5702 5704 5708 5711 5713 5715 5715 5716 5716 5717 5717 5717 5716 5715 5715 5714 5712 5709 5707 5705 5703 5701 5699
5572 5579 5585 5591 5597 5603 5612 5623 5629 5631 5640 5647 5650 5655 5659 5664 5667 5673 5677 5684 5688 5690 5692 5695 5697 5699 5701 5702 5703 5704 5703 5702 5702 5701 5700 5699 5698 5696 5694 5692 5690 5688 5686 5683
5562 5570 5579 5584 5589 5595 5613 5615 5620 5620 5622 5637 5640 5642 5646 5650 5655 5667 5669 5673 5676 5678 5680 5682 5684 5686 5687 5687 5688 5689 5689 5689 5688 5687 5686 5684 5682 5680 5679 5677 5675 5672 5669 5667
5551 5558 5564 5575 5581 5593 5600 5606 5609 5611 5627 5621 5626 5631 5633 5636 5650 5653 5656 5660 5663 5666 5669 5670 5671 5672 5673 5674 5674 5675 5675 5674 5673 5672 5670 5669 5667 5666 5664 5662 5659 5656 5654 5650
5547 5553 5558 5568 5577 5586 5592 5594 5599 5608 5610 5613 5616 5620 5624 5630 5637 5642 5646 5649 5652 5654 5655 5657 5658 5659 5659 5659 5660 5661 5661 5660 5660 5659 5657 5656 5654 5653 5651 5648 5646 5643 5641 5638
5542 5551 5556 5567 5573 5575 5579 5585 5590 5596 5598 5602 5608 5611 5616 5622 5627 5631 5635 5639 5641 5643 5644 5645 5646 5647 5647 5648 5649 5649 5649 5648 5647 5646 5645 5643 5641 5638 5637 5635 5634 5631 5628 5625
5538 5544 5547 5555 5561 5568 5572 5577 5582 5586 5589 5593 5599 5605 5609 5613 5618 5622 5627 5629 5632 5635 5635 5636 5636 5636 5636 5636 5636 5636 5636 5635 5634 5632 5631 5630 5628 5627 5625 5622 5620 5618 5615 5612
5530 5535 5539 5545 5551 5557 5562 5568 5574 5580 5585 5589 5594 5597 5601 5605 5610 5615 5619 5622 5625 5626 5626 5626 5625 5625 5625 5625 5625 5624 5623 5623 5622 5621 5621 5619 5617 5615 5613 5611 5609 5606 5603 5600
5519 5525 5531 5537 5542 5549 5556 5562 5568 5573 5577 5580 5583 5588 5593 5598 5602 5606 5609 5612 5614 5614 5614 5614 5614 5615 5615 5614 5613 5613 5612 5611 5610 5609 5608 5607 5605 5603 5601 5599 5596 5593 5590 5587